Content
SEND FEEDBACK

Daily
Averages
Monthly
Summary
United States of America

DREXEL HEIGHTS, ARIZONA


Home > North America > United States > Arizona
Elevation: 2534 feet     Latitude: 32 15N     Longitude: 110 50W

WEATHER
 
SELECT A DAY
Number of Records: 180,278;   Date Range: 1/3/95 - 9/29/14
 
SHARE

PRINT THIS DATA

[ ← Previous Day ]
WEATHER ALMANAC - JANUARY 31, 2013
[ Next Day → ]
[ °C ]   °F
Weather ElementAverageHighLow
Temperature47 °F59.9 °F (2:58 pm)32.9 °F (5:58 am)
Dewpoint28 °F35.2 °F (8:58 pm)23.9 °F (9:58 am)
Humidity51 %75 % (5:58 am)26 % (1:58 pm)
Barometer30.15 in30.23 in (1:58 am)30.09 in (1:58 pm)
Wind Speed4.4 mph10.4 mph (3:58 pm)
Weather ElementAverage
Visibility10 mi
Wind DirectionSSE (168.7 °)

Weather ElementTotal
Precipitation---
Heating Degree Days18.6 (Base 65)
Averaged from 23 records on January 31, 2013
WEATHER CONDITIONS BREAKOUT
WIND DIRECTION BREAKOUT
WEATHER BY HOUR - JANUARY 31, 2013
[ °C ]   °F
Local TimeTemperatureDewpointHumidityBarometerVisibilityWind DirectionWind SpeedGust SpeedPrecipitationEventsConditions
1:58 AM36.5 °F27.3 °F69 %30.23 in10.0 miESE (120°)4.6 mphClear
2:58 AM35.4 °F27.1 °F72 %30.22 in10.0 miSSE (150°)6.9 mphClear
3:58 AM36.7 °F25.5 °F64 %30.20 in10.0 miCalmClear
4:58 AM33.8 °F25.5 °F72 %30.19 in10.0 miCalmClear
5:58 AM32.9 °F25.9 °F75 %30.20 in10.0 miSouth (180°)4.6 mphClear
6:58 AM35.4 °F25.2 °F66 %30.18 in10.0 miNNE (30°)4.6 mphClear
7:58 AM37.0 °F25.2 °F62 %30.19 in10.0 miCalmClear
8:58 AM42.4 °F25.7 °F52 %30.17 in10.0 miCalmClear
9:58 AM51.3 °F23.9 °F34 %30.17 in10.0 miNorth (350°)3.5 mphClear
10:58 AM55.0 °F24.3 °F30 %30.17 in10.0 miESE (120°)4.6 mphClear
11:58 AM58.1 °F23.9 °F27 %30.14 in10.0 miWNW (290°)6.9 mphClear
12:58 PM57.4 °F27.0 °F31 %30.12 in10.0 miNW (320°)8.1 mphClear
1:58 PM59.4 °F24.6 °F26 %30.09 in10.0 miNNW (340°)8.1 mphPartly Cloudy
2:58 PM59.9 °F25.5 °F27 %30.09 in10.0 miNNW (330°)8.1 mphClear
3:58 PM58.1 °F26.4 °F30 %30.09 in10.0 miNNW (330°)10.4 mphClear
4:58 PM57.4 °F30.2 °F36 %30.09 in10.0 miNW (310°)5.8 mphClear
5:58 PM54.1 °F31.1 °F41 %30.10 in10.0 miNNW (340°)5.8 mphClear
6:58 PM51.3 °F33.8 °F51 %30.13 in10.0 miNNW (330°)3.5 mphClear
7:58 PM48.7 °F34.5 °F58 %30.14 in10.0 miCalmClear
8:58 PM46.4 °F35.2 °F65 %30.13 in10.0 miCalmClear
9:58 PM42.8 °F34.2 °F72 %30.12 in10.0 miSSE (160°)6.9 mphClear
10:58 PM47.1 °F33.6 °F59 %30.12 in10.0 miENE (70°)2.3 mphClear
11:58 PM44.4 °F29.3 °F55 %30.12 in10.0 miESE (110°)5.8 mphClear
Hourly data recorded from KDMA, located miles away from Drexel Heights, Arizona







STORIES FROM OUR PARTNERS